Home   Weather   Dublin   Past weeks

Flag for Ireland Past Weather in Dublin, Ireland — Yesterday and Last 2 Weeks

Now
48 °F

Passing clouds.


Feels Like: 45 °F
Forecast: 38 / 49 °F
Wind: 7 mph from West

Location: Dublin Airport

Current Time: Apr 24, 2017 at 12:37:06 am

Latest Report: Apr 24, 2017 at 12:00 am


Visibility: N/A

Pressure: 30.18 "Hg

Humidity: 94%

Dew Point: 46 °F

Location of DublinLocation

Past Weather in Dublin — Graph

°F

Dublin Temperature Yesterday

Maximum temperature yesterday: 55 °F (at 5:30 pm)
Minimum temperature yesterday: 36 °F (at 3:30 am)
Average temperature yesterday: 48 °F

High & Low Weather Summary for the Past Weeks

 TemperatureHumidityPressure
High57 °F (Apr 9, 2:30 pm)100% (Apr 9, 1:30 am)30.60 "Hg (Apr 9, 1:30 am)
Low32 °F (Apr 18, 2:30 am)51% (Apr 15, 4:00 pm)29.92 "Hg (Apr 14, 12:00 pm)
Average48 °F80%30.29 "Hg
* Reported Apr 8 11:00 pm — Apr 23 11:00 pm, Dublin, Weather by CustomWeather, © 2017

Note: Actual official high and low records may vary slightly from our data, if they occured in-between our weather recording intervals... More about our weather records

Advertising

Dublin Weather History for the Previous 24 Hours

Scroll right to see more
 ConditionsComfort  
Time TempWeatherWind HumidityBarometerVisibility
11:00 pm
Sun, Apr 23
50 °FPassing clouds.7 mph88%30.18 "HgN/A
10:30 pm50 °FPartly cloudy.7 mph88%30.18 "HgN/A
10:00 pm50 °FPartly cloudy.6 mph88%30.21 "HgN/A
9:30 pm50 °FPartly cloudy.7 mph88%30.21 "HgN/A
9:00 pm52 °FPartly cloudy.8 mph82%30.21 "HgN/A
8:00 pm52 °FBroken clouds.9 mph77%30.21 "HgN/A
7:30 pm54 °FBroken clouds.12 mph72%30.21 "HgN/A
7:00 pm54 °FBroken clouds.12 mph72%30.21 "HgN/A
6:30 pm55 °FBroken clouds.12 mph67%30.21 "HgN/A
6:00 pm55 °FBroken clouds.12 mph72%30.21 "HgN/A
5:30 pm55 °FBroken clouds.12 mph72%30.24 "HgN/A
5:00 pm54 °FBroken clouds.7 mph77%30.24 "HgN/A
4:30 pm54 °FBroken clouds.7 mph77%30.24 "HgN/A
4:00 pm54 °FBroken clouds.7 mph72%30.27 "HgN/A
3:30 pm52 °FSprinkles. Broken clouds.6 mph77%30.27 "HgN/A
3:00 pm52 °FBroken clouds.6 mph77%30.27 "HgN/A
2:30 pm52 °FBroken clouds.6 mph77%30.30 "HgN/A
2:00 pm50 °FBroken clouds.7 mph76%30.30 "HgN/A
1:30 pm52 °FBroken clouds.9 mph72%30.30 "HgN/A
1:00 pm54 °FBroken clouds.8 mph72%30.30 "HgN/A
12:30 pm54 °FBroken clouds.3 mph72%30.33 "HgN/A
12:00 pm54 °FPartly sunny.3 mph72%30.33 "HgN/A
11:30 am52 °FBroken clouds.3 mph77%30.33 "HgN/A
11:00 am52 °FPartly sunny.3 mph72%30.33 "HgN/A
10:30 am50 °FPartly sunny.3 mph82%30.33 "HgN/A
10:00 am48 °FPartly sunny.1 mph82%30.36 "HgN/A
9:30 am48 °FPartly sunny.3 mph82%30.36 "HgN/A
9:00 am46 °FPartly sunny.3 mph93%30.36 "HgN/A
8:00 am45 °FPartly sunny.5 mph100%30.36 "Hg4 mi
7:30 am45 °FPartly sunny.5 mph93%30.36 "Hg4 mi
7:00 am41 °FFog.3 mph100%30.36 "Hg4 mi
6:30 am39 °FPartly sunny.2 mph100%30.36 "Hg1 mi
6:00 am37 °FFog.3 mph100%30.36 "Hg1 mi
5:30 am37 °FFog.2 mph100%30.36 "Hg2 mi
5:00 am37 °FFog.3 mph100%30.36 "Hg2 mi
4:30 am41 °FFog.3 mph93%30.36 "Hg1 mi
4:00 am36 °FFog.2 mph100%30.39 "Hg1 mi
3:30 am36 °FFog.1 mph93%30.39 "Hg1 mi
3:00 am37 °FFog.2 mph93%30.39 "Hg2 mi
2:30 am41 °FPassing clouds.No wind93%30.39 "Hg6 mi
2:00 am45 °FPartly cloudy.3 mph93%30.39 "HgN/A
1:30 am46 °FPassing clouds.5 mph93%30.42 "HgN/A
1:00 am46 °FPassing clouds.7 mph93%30.42 "HgN/A
12:30 am46 °FPartly cloudy.6 mph93%30.39 "HgN/A
12:00 am46 °FPassing clouds.8 mph93%30.39 "HgN/A
Weather by CustomWeather, © 2017

See weather overviewHow to use our weather pages